Location: Eastchurch
(51.4000°N, 0.8667°E)
Time: 23:19:41
(UTC+00:00)

COSMOS 2455 - Pass Details

Date: 19 January 2026
Orbit: 899 x 909 km, 67.1° (Epoch: 7 February)

Event Time Altitude Azimuth Distance (km) Brightness Sun altitude
Rises 18:07:52 0° 322° (NW) 3,550 6.3 -15.7°
Reaches altitude 10° 18:10:26 10° 326° (NW) 2,605 5.5 -16.1°
Maximum altitude 18:16:26 62° 47° (NE) 1,020 2.8 -17.1°
Enters shadow 18:21:13 16° 125° (SE) 2,171 4.4 -17.8°
